Preview of NWS' New Version of Forecast
This preview is not operational and should not be used for support decisions.

Regional Weather Roundup (RWR)

Issued by National Weather Service (NWS)

                            
000
ASUS42 KTBW 211218
RWRFL 
FLORIDA REGIONAL WEATHER ROUNDUP
NATIONAL WEATHER SERVICE TAMPA BAY RUSKIN FL
800 AM EDT WED AUG 21 2019

NOTE: "FAIR" INDICATES FEW OR NO CLOUDS BELOW 12,000 FEET WITH NO
SIGNIFICANT WEATHER AND/OR OBSTRUCTIONS TO VISIBILITY.

FLZ001>010-012>015-112-114-115-211300-
PANHANDLE FLORIDA
  
CITY           SKY/WX    TMP DP  RH WIND       PRES   REMARKS
PENSACOLA      FAIR      77  77 100 NE3       30.06R                  
PENSACOLA NAS  FAIR      74  74 100 N3        30.05R                  
MILTON NAS     FAIR      73  73 100 E3        30.07R                  
CRESTVIEW      FAIR      74  72  93 CALM      30.09R FOG              
DUKE FIELD     FAIR      75  75 100 CALM      30.07R                  
VALPARAISO     FAIR      77  76  98 NE3       30.06R                  
MARY ESTHER    PTCLDY    76  74  93 N5        30.05R                  
PANAMA CITY    FAIR      76  74  93 NE3       30.06R                  
TYNDALL AFB    FAIR      77  75  93 NE6       30.06R                  
APALACHICOLA   FAIR      77  74  90 NE6       30.06R                  

STATION/POSITION SKY/WX   TEMP    WIND        PRES    WAVE   SWELL
                          AIR SEA DIR/SP/G            HT/PER HT/PER
                          (F)     (DEG/KT/KT) (MB)    (FT/S) (FT/S)
30.1N   87.6W              82 84  100/  4/  6 1017.7R   2/ 7   2/ 7
29.2N   88.2W              83 85  100/  6/  8 1017.6R   2/ 6   2/ 6
28.8N   86.0W                 84  110/  8/ 12 1017.6R   2/ 5   2/ 5
PANAMA CITY BEAC           79 85   60/  5/  7 1018.4R
TOWER C                    82     120/  4/  5 1018.4R
28.5N   84.5W              82     140/ 12/ 14 1018.3S   1/ 5

$$
FLZ011-016>038-118-127-128-134-139-239-211300-
NORTH FLORIDA
  
CITY           SKY/WX    TMP DP  RH WIND       PRES   REMARKS
MARIANNA       FAIR      75  74  96 CALM      30.07R                  
TALLAHASSEE    PTSUNNY   77  75  93 SE3       30.09R                  
PERRY          FAIR      75  74  97 CALM      30.10R                  
LIVE OAK       SUNNY     73  73 100 CALM      30.10R                  
CROSS CITY     FAIR      75  74  96 CALM      30.10R                  
LAKE CITY      FAIR      72  72 100 CALM      30.11R                  
GAINESVILLE    FOG       74  73  97 CALM      30.12R VSB 1/2          
WILLISTON      FAIR      73  73  99 CALM      30.10R                  
MAYPORT NAS    FAIR      79  76  90 CALM      30.10R                  
JACKSONVILLE   FAIR      77  75  93 CALM      30.10R                  
JAX NAS        FAIR      79  74  84 CALM      30.11R                  
JAX CECIL      SUNNY     72  72 100 CALM      30.11R                  
FERNANDINA BEA FAIR      77  76  99 MISG      30.11R                  
ST AUGUSTINE   FAIR      77  75  93 CALM      30.12R                  
PALM COAST     SUNNY     77  75  94 SE5       30.10R                  

STATION/POSITION SKY/WX   TEMP    WIND        PRES    WAVE   SWELL
                          AIR SEA DIR/SP/G            HT/PER HT/PER
                          (F)     (DEG/KT/KT) (MB)    (FT/S) (FT/S)
SHELL POINT      NOT AVBL
KEATON BEACH               76      90/  7/  8 1018.9R
CEDAR KEY                  80     150/  9/ 10 1019.0R
FERNANDINA                 81 83              1020.1
30.7N   81.3W                 82                N/A     2/11
MAYPORT                    79 83  210/  1/  2 1019.8
31.4N   80.9W              82 82  250/  4/  4 1019.7R   2/10   2/10
ST AUGUSTINE               81 81  130/  5/  5 1019.7R

$$
FLZ040-043>046-052-053-057-058-063-144-211300-
INTERIOR CENTRAL FLORIDA
  
CITY           SKY/WX    TMP DP  RH WIND       PRES   REMARKS
OCALA          FAIR      75  75 100 CALM      30.11R                  
LEESBURG       FAIR      79  77  94 E3        30.11R                  
SANFORD        FAIR      78  76  93 E5        30.10R                  
ORLANDO EXEC   FAIR      79  76  90 NE5       30.10R                  
ORLANDO INTL   FAIR      79  76  90 E5        30.10R                  
KISSIMMEE      FAIR      79  77  94 E3        30.11R                  
WINTER HAVEN   FAIR      80  75  84 E5        30.11R                  
LAKELAND       SUNNY     75  73  94 CALM      30.11R                  
BARTOW         SUNNY     75  75 100 E3        30.09                   
SEBRING        FAIR      76  75  96 NE3       30.09S                  
OKEECHOBEE     FAIR      75  73  94 E3        30.08S                  

$$
FLZ041-047-054-059-064-141-147-211300-
EAST CENTRAL FLORIDA
  
CITY           SKY/WX    TMP DP  RH WIND       PRES   REMARKS
ORMOND BEACH   SUNNY     84  77  79 CALM      30.11R                  
DAYTONA BEACH  FAIR      80  79  96 NE3       30.10R                  
DELAND         FAIR      75  73  94 CALM      30.11R                  
NEW SMYRNA BEA MOSUNNY   77  75  94 CALM      30.11R                  
JFK SPACE CTR  FAIR     N/A N/A N/A CALM        N/A                   
TITUSVILLE     SUNNY    N/A N/A N/A CALM      30.11R                  
CAPE CANAVERAL FAIR      77  77 100 CALM      30.09R                  
PATRICK AFB    LGT RAIN  81  81 100 E7        30.10R                  
MELBOURNE      FAIR      79  75  87 NW3       30.09R                  
VERO BEACH     FAIR      77  75  93 CALM      30.09R                  
FT PIERCE      FAIR      78  75  90 CALM      30.09R                  
STUART         MOSUNNY   81  77  89 VRB3      30.10R                  

STATION/POSITION SKY/WX   TEMP    WIND        PRES    WAVE   SWELL
                          AIR SEA DIR/SP/G            HT/PER HT/PER
                          (F)     (DEG/KT/KT) (MB)    (FT/S) (FT/S)
28.5N   80.2W              84 84  110/  8/ 16 1019.1R   2/ 7   2/ 7
28.9N   78.5W              84 86  120/  8/ 10 1020.4R   2/10   2/10
TRIDENT PIER               77 81   CALM  /  1 1020.4
28.4N   80.5W                 82                N/A     1/ 7
27.5N   80.2W                 83                N/A     2/ 4

$$
FLZ050-056-061-142-242-148-248-149-249-151-251-155-255-
160-260-211300-
WEST CENTRAL FLORIDA
  
CITY           SKY/WX    TMP DP  RH WIND       PRES   REMARKS
CRYSTAL RIVER  FAIR      77  73  88 CALM      30.09S                  
INVERNESS      FAIR      73  73 100 CALM      30.10R                  
BROOKSVILLE    FAIR      76  74  93 E3        30.10R                  
CLEARWATER AIR FAIR      79  73  83 E6        30.08R                  
ST PETE CLEARW FAIR      80  75  84 SE7       30.08R                  
TAMPA INTL     PTSUNNY   81  75  83 E5        30.09R                  
PLANT CITY     FAIR      77  77 100 CALM      30.12R                  
MACDILL AFB    FAIR      78  75  90 E8        30.08R                  
PETER O KNIGHT FAIR     N/A N/A N/A E5        30.09R                  
ST PETERSBURG  FAIR      80  75  84 E10       30.06R                  
SARASOTA       FAIR      76  74  93 E8        30.06R                  
VENICE         FAIR      77  77 100 E8        30.08S                  

STATION/POSITION SKY/WX   TEMP    WIND        PRES    WAVE   SWELL
                          AIR SEA DIR/SP/G            HT/PER HT/PER
                          (F)     (DEG/KT/KT) (MB)    (FT/S) (FT/S)
27.3N   84.2W                 85                N/A     3/ 5
CLEARWATER BEACH           80 86  110/  6/  9 1018.7R
MIDDLE TAMPA BAY           78     110/  9/ 10 1018.6
VENICE                     77 85   80/  6/  7 1018.2R

$$
FLZ066-069-070-075>078-162-262-165-265-211300-
SOUTHWEST FLORIDA AND KEYS
  
CITY           SKY/WX    TMP DP  RH WIND       PRES   REMARKS
PUNTA GORDA    FAIR      76  76 100 E5        30.09R                  
FT MYERS       FAIR      77  74  90 E5        30.06R                  
SOUTHWEST INTL FAIR      77  75  93 E6        30.07R                  
NAPLES         FAIR      79  75  87 E7        30.06R                  
IMMOKALEE      FAIR      77  75  94 CALM      30.05S                  
MARATHON       FAIR      83  72  69 E3        30.04R                  
KEY WEST NAS   FAIR      85  74  69 SE8       30.03R                  
KEY WEST INTL  FAIR      83  75  77 SE9       30.04R                  

STATION/POSITION SKY/WX   TEMP    WIND        PRES    WAVE   SWELL
                          AIR SEA DIR/SP/G            HT/PER HT/PER
                          (F)     (DEG/KT/KT) (MB)    (FT/S) (FT/S)
NAPLES                     78 85              1017.5
26.0N   85.6W              84 85   80/  2/  4 1017.0R   2/ 4   2/ 4
DRY TORTUGAS               84     150/ 10/ 11 1017.0R
SAND KEY                   83     120/  8/ 10 1016.0
SOMBRERO KEY               83      80/  7/  9 1017.4
LONG KEY                   85                 1016.5

$$
FLZ067-068-071>074-168-172>174-211300-
SOUTHEAST FLORIDA 
  
CITY           SKY/WX    TMP DP  RH WIND       PRES   REMARKS
W PALM BEACH   FAIR      83  72  69 E5        30.08R                  
BOCA RATON     MOSUNNY   81  73  78 CALM      30.07R                  
FT LAUDER-EXEC FAIR      81  74  79 CALM      30.06R                  
FT LAUDERDALE  FAIR      82  73  74 VRB3      30.06R                  
POMPANO BEACH  FAIR      84  71  65 E7        30.07R                  
OPA LOCKA      FAIR      82  75  79 CALM      30.07R                  
MIAMI          FAIR      84  71  65 CALM      30.06R                  
WEST KENDALL   FAIR      81  74  79 CALM      30.06R                  
HOMESTEAD      FAIR      82  75  78 CALM      30.05R                  

STATION/POSITION SKY/WX   TEMP    WIND        PRES    WAVE   SWELL
                          AIR SEA DIR/SP/G            HT/PER HT/PER
                          (F)     (DEG/KT/KT) (MB)    (FT/S) (FT/S)
VIRGINIA KEY               84 88  100/  5/  8 1017.3R
LAKE WORTH                        110/  6/  8   N/A
FOWEY ROCKS                84 86  120/  9/  9 1018.2R
SETTLEMENT POINT           83     120/  7/  8 1018.9R

$$